Location: Rio Negrinho
(26.2394°S, 49.4999°W)
Time: 05:32:41
(UTC+00:00)

Cosmos 44 Rocket - Pass Details

Date: 10 October 2020
Orbit: 644 x 746 km, 65.1° (Epoch: 30 October)

Event Time Altitude Azimuth Distance (km) Brightness Sun altitude
Rises 23:11:19 0° 184° (S) 3,007 6.9 -24.3°
Reaches altitude 10° 23:14:37 10° 160° (SSE) 2,074 5.8 -25.0°
Enters shadow 23:15:06 11° 155° (SSE) 1,977 5.6 -25.1°
